Wetterdaten: Woche 07.03.05 - 13.03.05 (KW10)
Datum Zeit Temperatur Luftfeuchte Luftdruck Niederschlag Windrichtung Wind
07.03.2005 00:00 -11,2 C 82 % 1019 hPa 0,0 l/m N 0,0 km/h (0 Bft)
07.03.2005 01:00 -12,1 C 82 % 1019 hPa 0,0 l/m N 0,0 km/h (0 Bft)
07.03.2005 02:00 -13,0 C 82 % 1019 hPa 0,0 l/m S-SW 0,0 km/h (0 Bft)
07.03.2005 12:00 -1,9 C 47 % 1021 hPa 0,0 l/m W-SW 17,0 km/h (3 Bft)
07.03.2005 13:00 -1,7 C 47 % 1021 hPa 0,0 l/m S-SW 18,2 km/h (3 Bft)
07.03.2005 14:00 -1,4 C 47 % 1020 hPa 0,0 l/m S-SW 17,4 km/h (3 Bft)
07.03.2005 15:00 -1,2 C 47 % 1020 hPa 0,0 l/m SW 12,6 km/h (3 Bft)
07.03.2005 16:00 -1,8 C 49 % 1020 hPa 0,0 l/m SW 17,8 km/h (3 Bft)
07.03.2005 17:00 -2,4 C 52 % 1020 hPa 0,0 l/m SW 16,4 km/h (3 Bft)
07.03.2005 18:00 -3,1 C 55 % 1021 hPa 0,0 l/m SW 14,9 km/h (3 Bft)
07.03.2005 19:00 -3,4 C 58 % 1021 hPa 0,0 l/m SW 14,0 km/h (3 Bft)
07.03.2005 20:00 -3,3 C 62 % 1021 hPa 0,0 l/m SW 12,5 km/h (3 Bft)
07.03.2005 21:00 -3,4 C 70 % 1021 hPa 0,0 l/m SW 14,3 km/h (3 Bft)
07.03.2005 22:00 -3,4 C 77 % 1021 hPa 0,0 l/m S-SW 13,7 km/h (3 Bft)
07.03.2005 23:00 -3,8 C 89 % 1021 hPa 0,0 l/m S-SW 15,0 km/h (3 Bft)
08.03.2005 00:00 -3,9 C 93 % 1021 hPa 0,0 l/m S-SW 15,4 km/h (3 Bft)
08.03.2005 01:00 -4,0 C 95 % 1021 hPa 0,0 l/m S-SW 14,9 km/h (3 Bft)
08.03.2005 02:00 -4,1 C 94 % 1021 hPa 0,0 l/m S-SW 14,9 km/h (3 Bft)
08.03.2005 03:00 -4,0 C 94 % 1020 hPa 0,0 l/m S 12,6 km/h (3 Bft)
08.03.2005 04:00 -3,8 C 91 % 1020 hPa 0,0 l/m S 13,7 km/h (3 Bft)
08.03.2005 05:00 -3,7 C 90 % 1020 hPa 0,0 l/m S 14,4 km/h (3 Bft)
08.03.2005 06:00 -3,7 C 93 % 1021 hPa 0,0 l/m S 11,5 km/h (2 Bft)
08.03.2005 07:00 -3,5 C 93 % 1021 hPa 0,0 l/m S 11,9 km/h (2 Bft)
08.03.2005 08:00 -3,2 C 94 % 1022 hPa 0,0 l/m S 13,0 km/h (3 Bft)
08.03.2005 09:00 -2,1 C 91 % 1022 hPa 0,0 l/m S-SW 15,5 km/h (3 Bft)
08.03.2005 10:00 -1,0 C 84 % 1022 hPa 0,0 l/m S 16,8 km/h (3 Bft)
08.03.2005 11:00 0,1 C 79 % 1022 hPa 0,0 l/m W-SW 15,5 km/h (3 Bft)
08.03.2005 12:00 0,8 C 77 % 1022 hPa 0,0 l/m SW 16,9 km/h (3 Bft)
08.03.2005 13:00 1,5 C 75 % 1022 hPa 0,0 l/m W-SW 13,9 km/h (3 Bft)
08.03.2005 14:00 1,5 C 78 % 1022 hPa 0,0 l/m SW 14,0 km/h (3 Bft)
08.03.2005 15:00 1,8 C 78 % 1022 hPa 0,0 l/m W-SW 14,6 km/h (3 Bft)
08.03.2005 16:00 1,1 C 84 % 1022 hPa 0,0 l/m W-SW 15,8 km/h (3 Bft)
08.03.2005 17:00 1,0 C 85 % 1023 hPa 0,0 l/m SW 15,4 km/h (3 Bft)
08.03.2005 18:00 0,8 C 87 % 1023 hPa 0,0 l/m W-SW 14,9 km/h (3 Bft)
08.03.2005 19:00 0,7 C 87 % 1023 hPa 0,0 l/m SW 17,5 km/h (3 Bft)
08.03.2005 20:00 0,8 C 86 % 1024 hPa 0,0 l/m SW 15,4 km/h (3 Bft)
08.03.2005 21:00 0,6 C 87 % 1024 hPa 0,0 l/m SW 16,0 km/h (3 Bft)
08.03.2005 22:00 0,6 C 87 % 1024 hPa 0,0 l/m SW 18,6 km/h (3 Bft)
08.03.2005 23:00 0,6 C 88 % 1024 hPa 0,0 l/m W-SW 17,7 km/h (3 Bft)
09.03.2005 00:00 0,5 C 89 % 1024 hPa 0,0 l/m W-SW 18,4 km/h (3 Bft)
09.03.2005 01:00 0,6 C 89 % 1024 hPa 0,0 l/m SW 16,9 km/h (3 Bft)
09.03.2005 02:00 0,4 C 92 % 1024 hPa 0,0 l/m SW 15,5 km/h (3 Bft)
09.03.2005 03:00 0,4 C 95 % 1024 hPa 0,0 l/m SW 14,8 km/h (3 Bft)
09.03.2005 04:00 0,3 C 96 % 1024 hPa 0,0 l/m W-SW 14,5 km/h (3 Bft)
09.03.2005 05:00 0,3 C 96 % 1024 hPa 0,0 l/m SW 13,3 km/h (3 Bft)
09.03.2005 06:00 0,3 C 96 % 1024 hPa 0,0 l/m SW 13,8 km/h (3 Bft)
09.03.2005 07:00 0,4 C 94 % 1024 hPa 0,0 l/m W-SW 15,6 km/h (3 Bft)
09.03.2005 08:00 0,8 C 90 % 1025 hPa 0,0 l/m W-SW 16,4 km/h (3 Bft)
09.03.2005 09:00 1,2 C 86 % 1025 hPa 0,0 l/m W-SW 16,2 km/h (3 Bft)
09.03.2005 10:00 1,7 C 82 % 1025 hPa 0,0 l/m W-SW 16,0 km/h (3 Bft)
09.03.2005 11:00 1,8 C 81 % 1026 hPa 0,0 l/m W-SW 14,2 km/h (3 Bft)
09.03.2005 12:00 2,1 C 82 % 1026 hPa 0,0 l/m W-SW 14,5 km/h (3 Bft)
09.03.2005 13:00 2,5 C 84 % 1025 hPa 0,0 l/m W-SW 10,2 km/h (2 Bft)
09.03.2005 14:00 3,1 C 77 % 1025 hPa 0,0 l/m W 11,9 km/h (2 Bft)
09.03.2005 15:00 2,9 C 75 % 1025 hPa 0,0 l/m W 14,1 km/h (3 Bft)
09.03.2005 16:00 2,7 C 72 % 1025 hPa 0,0 l/m W 14,9 km/h (3 Bft)
09.03.2005 17:00 2,2 C 72 % 1025 hPa 0,0 l/m W 13,1 km/h (3 Bft)
09.03.2005 18:00 1,4 C 82 % 1026 hPa 0,0 l/m W-SW 12,4 km/h (3 Bft)
09.03.2005 19:00 0,7 C 92 % 1026 hPa 0,0 l/m W-SW 9,0 km/h (2 Bft)
09.03.2005 20:00 0,6 C 95 % 1026 hPa 0,0 l/m W-SW 8,2 km/h (2 Bft)
09.03.2005 21:00 0,6 C 95 % 1026 hPa 0,0 l/m W 13,6 km/h (3 Bft)
09.03.2005 22:00 0,5 C 94 % 1026 hPa 0,0 l/m W 12,8 km/h (3 Bft)
09.03.2005 23:00 0,5 C 94 % 1026 hPa 0,0 l/m W-SW 8,0 km/h (2 Bft)
10.03.2005 00:00 0,0 C 93 % 1026 hPa 0,0 l/m S-SW 4,0 km/h (1 Bft)
10.03.2005 01:00 -0,2 C 96 % 1026 hPa 0,0 l/m W-SW 5,6 km/h (1 Bft)
10.03.2005 02:00 -0,6 C 96 % 1026 hPa 0,0 l/m S 4,7 km/h (1 Bft)
10.03.2005 03:00 -1,1 C 97 % 1026 hPa 0,0 l/m S 1,2 km/h (1 Bft)
10.03.2005 04:00 -0,9 C 98 % 1026 hPa 0,0 l/m S-SW 0,5 km/h (0 Bft)
10.03.2005 05:00 -1,0 C 98 % 1026 hPa 0,0 l/m N 0,0 km/h (0 Bft)
10.03.2005 06:00 -0,9 C 99 % 1027 hPa 0,0 l/m N 0,0 km/h (0 Bft)
10.03.2005 07:00 -1,0 C 99 % 1027 hPa 0,0 l/m N 0,0 km/h (0 Bft)
10.03.2005 08:00 -0,2 C 98 % 1027 hPa 0,0 l/m S 2,1 km/h (1 Bft)
10.03.2005 09:00 1,5 C 89 % 1027 hPa 0,0 l/m NW 2,2 km/h (1 Bft)
10.03.2005 10:00 3,5 C 62 % 1027 hPa 1,0 l/m W-NW 4,9 km/h (1 Bft)
10.03.2005 11:00 3,3 C 59 % 1027 hPa 0,0 l/m N-NW 6,1 km/h (2 Bft)
10.03.2005 12:00 3,7 C 54 % 1027 hPa 0,0 l/m N-NW 3,0 km/h (1 Bft)
10.03.2005 13:00 4,8 C 48 % 1027 hPa 0,0 l/m S 3,4 km/h (1 Bft)
10.03.2005 14:00 4,7 C 51 % 1027 hPa 0,0 l/m N-NO 9,6 km/h (2 Bft)
10.03.2005 15:00 3,7 C 56 % 1026 hPa 0,0 l/m O-NO 10,4 km/h (2 Bft)
10.03.2005 16:00 3,4 C 56 % 1026 hPa 0,0 l/m O-NO 5,2 km/h (1 Bft)
10.03.2005 17:00 2,8 C 57 % 1025 hPa 0,0 l/m S-SW 0,5 km/h (0 Bft)
10.03.2005 18:00 0,9 C 61 % 1024 hPa 0,0 l/m N 0,0 km/h (0 Bft)
10.03.2005 19:00 -1,2 C 69 % 1024 hPa 0,0 l/m N 0,0 km/h (0 Bft)
10.03.2005 20:00 -2,4 C 75 % 1024 hPa 0,0 l/m N 0,0 km/h (0 Bft)
10.03.2005 21:00 -3,1 C 80 % 1024 hPa 0,0 l/m N 0,0 km/h (0 Bft)
10.03.2005 22:00 -3,8 C 83 % 1023 hPa 0,0 l/m NW 2,7 km/h (1 Bft)
10.03.2005 23:00 -4,4 C 87 % 1023 hPa 0,0 l/m NW 3,4 km/h (1 Bft)
11.03.2005 00:00 -4,8 C 90 % 1023 hPa 0,0 l/m NW 0,1 km/h (0 Bft)
11.03.2005 01:00 -5,6 C 91 % 1022 hPa 0,0 l/m NW 0,4 km/h (0 Bft)
11.03.2005 02:00 -6,3 C 91 % 1021 hPa 0,0 l/m N 0,0 km/h (0 Bft)
11.03.2005 03:00 -7,9 C 91 % 1020 hPa 0,0 l/m N 0,0 km/h (0 Bft)
11.03.2005 04:00 -9,3 C 90 % 1019 hPa 0,0 l/m N 0,0 km/h (0 Bft)
11.03.2005 05:00 -9,8 C 92 % 1019 hPa 0,0 l/m N 0,0 km/h (0 Bft)
11.03.2005 06:00 -10,7 C 92 % 1019 hPa 0,0 l/m S-SW 1,3 km/h (1 Bft)
11.03.2005 07:00 -10,4 C 92 % 1019 hPa 0,0 l/m S-SW 4,7 km/h (1 Bft)
11.03.2005 08:00 -6,2 C 99 % 1019 hPa 0,0 l/m S 12,3 km/h (3 Bft)
11.03.2005 09:00 -3,6 C 100 % 1019 hPa 0,0 l/m S-SW 10,4 km/h (2 Bft)
11.03.2005 10:00 -0,7 C 88 % 1018 hPa 0,0 l/m S-SW 16,8 km/h (3 Bft)
11.03.2005 11:00 1,3 C 64 % 1017 hPa 0,0 l/m SW 24,0 km/h (4 Bft)
11.03.2005 12:00 2,8 C 55 % 1016 hPa 0,0 l/m SW 27,0 km/h (4 Bft)
11.03.2005 13:00 4,1 C 51 % 1015 hPa 1,0 l/m SW 27,5 km/h (4 Bft)
11.03.2005 14:00 4,5 C 51 % 1014 hPa 0,0 l/m SW 24,0 km/h (4 Bft)
11.03.2005 15:00 4,6 C 51 % 1013 hPa 0,0 l/m SW 22,4 km/h (4 Bft)
11.03.2005 16:00 4,4 C 51 % 1012 hPa 0,0 l/m SW 23,6 km/h (4 Bft)
11.03.2005 17:00 3,8 C 53 % 1012 hPa 0,0 l/m SW 22,0 km/h (4 Bft)
11.03.2005 18:00 3,3 C 53 % 1012 hPa 0,0 l/m W-SW 22,6 km/h (4 Bft)
11.03.2005 19:00 2,8 C 53 % 1012 hPa 0,0 l/m W-SW 25,3 km/h (4 Bft)
11.03.2005 20:00 2,3 C 57 % 1012 hPa 0,0 l/m W-SW 24,7 km/h (4 Bft)
11.03.2005 21:00 2,1 C 59 % 1011 hPa 0,0 l/m SW 24,9 km/h (4 Bft)
11.03.2005 22:00 2,3 C 61 % 1011 hPa 0,0 l/m SW 24,2 km/h (4 Bft)
11.03.2005 23:00 2,2 C 62 % 1010 hPa 0,0 l/m SW 26,3 km/h (4 Bft)
12.03.2005 00:00 2,2 C 61 % 1010 hPa 0,0 l/m SW 25,4 km/h (4 Bft)
12.03.2005 01:00 2,3 C 60 % 1009 hPa 0,0 l/m SW 24,7 km/h (4 Bft)
12.03.2005 02:00 2,4 C 61 % 1009 hPa 0,0 l/m W-SW 25,5 km/h (4 Bft)
12.03.2005 03:00 2,3 C 63 % 1008 hPa 0,0 l/m SW 23,8 km/h (4 Bft)
12.03.2005 04:00 2,2 C 66 % 1008 hPa 0,0 l/m SW 25,4 km/h (4 Bft)
12.03.2005 05:00 2,1 C 68 % 1007 hPa 0,0 l/m S-SW 28,6 km/h (4 Bft)
12.03.2005 06:00 1,8 C 72 % 1006 hPa 0,0 l/m SW 31,7 km/h (5 Bft)
12.03.2005 07:00 1,6 C 74 % 1006 hPa 0,0 l/m S-SW 27,2 km/h (4 Bft)
12.03.2005 08:00 1,8 C 72 % 1006 hPa 0,0 l/m S 29,4 km/h (5 Bft)
12.03.2005 09:00 2,0 C 71 % 1005 hPa 0,0 l/m S 29,6 km/h (5 Bft)
12.03.2005 10:00 2,2 C 70 % 1005 hPa 0,0 l/m S-SW 28,4 km/h (4 Bft)
12.03.2005 11:00 2,5 C 67 % 1005 hPa 0,0 l/m S 30,7 km/h (5 Bft)
12.03.2005 12:00 2,6 C 69 % 1004 hPa 0,0 l/m S 32,0 km/h (5 Bft)
12.03.2005 13:00 2,4 C 72 % 1004 hPa 0,0 l/m S-SW 34,1 km/h (5 Bft)
12.03.2005 14:00 2,3 C 76 % 1003 hPa 0,0 l/m S-SW 29,5 km/h (5 Bft)
12.03.2005 15:00 1,5 C 83 % 1004 hPa 0,0 l/m W-SW 22,6 km/h (4 Bft)
12.03.2005 16:00 0,3 C 96 % 1005 hPa 0,0 l/m W-SW 17,8 km/h (3 Bft)
12.03.2005 17:00 -0,1 C 84 % 1005 hPa 0,0 l/m S-SW 15,1 km/h (3 Bft)
12.03.2005 18:00 -0,2 C 85 % 1006 hPa 0,0 l/m SW 13,8 km/h (3 Bft)
12.03.2005 19:00 -0,8 C 88 % 1007 hPa 0,0 l/m SW 10,3 km/h (2 Bft)
12.03.2005 20:00 -1,2 C 90 % 1008 hPa 0,0 l/m S-SW 10,8 km/h (2 Bft)
12.03.2005 21:00 -1,0 C 90 % 1008 hPa 0,0 l/m S 14,2 km/h (3 Bft)
12.03.2005 22:00 -1,0 C 91 % 1009 hPa 0,0 l/m S 12,3 km/h (3 Bft)
12.03.2005 23:00 -1,5 C 89 % 1009 hPa 0,0 l/m S-SW 12,7 km/h (3 Bft)
13.03.2005 00:00 -1,9 C 89 % 1010 hPa 0,0 l/m S 12,6 km/h (3 Bft)
13.03.2005 01:00 -2,7 C 90 % 1010 hPa 0,0 l/m S 12,6 km/h (3 Bft)
13.03.2005 02:00 -2,5 C 93 % 1010 hPa 0,0 l/m S 9,8 km/h (2 Bft)
13.03.2005 03:00 -2,4 C 92 % 1011 hPa 0,0 l/m S-SW 11,7 km/h (2 Bft)
13.03.2005 04:00 -2,8 C 90 % 1011 hPa 0,0 l/m S-SW 8,5 km/h (2 Bft)
13.03.2005 05:00 -2,9 C 88 % 1012 hPa 0,0 l/m S 10,7 km/h (2 Bft)
13.03.2005 06:00 -2,6 C 87 % 1012 hPa 0,0 l/m S 12,7 km/h (3 Bft)
13.03.2005 07:00 -2,2 C 85 % 1013 hPa 0,0 l/m S 11,3 km/h (2 Bft)
13.03.2005 08:00 -1,2 C 80 % 1013 hPa 0,0 l/m S-SW 9,1 km/h (2 Bft)
13.03.2005 09:00 -0,3 C 79 % 1014 hPa 0,0 l/m S-SO 10,1 km/h (2 Bft)
13.03.2005 10:00 1,5 C 72 % 1014 hPa 0,0 l/m S 12,3 km/h (3 Bft)
13.03.2005 11:00 2,7 C 54 % 1014 hPa 2,0 l/m S-SO 16,0 km/h (3 Bft)
13.03.2005 12:00 3,9 C 52 % 1014 hPa 0,0 l/m S-SO 16,6 km/h (3 Bft)
13.03.2005 13:00 4,4 C 47 % 1014 hPa 0,0 l/m S-SO 14,4 km/h (3 Bft)
13.03.2005 14:00 5,5 C 42 % 1014 hPa 0,0 l/m S-SO 12,9 km/h (3 Bft)
13.03.2005 15:00 4,9 C 41 % 1014 hPa 0,0 l/m S-SO 10,6 km/h (2 Bft)
13.03.2005 16:00 4,4 C 41 % 1014 hPa 0,0 l/m S-SO 8,9 km/h (2 Bft)
13.03.2005 17:00 4,1 C 41 % 1014 hPa 0,0 l/m W-NW 3,6 km/h (1 Bft)
13.03.2005 18:00 2,0 C 47 % 1014 hPa 0,0 l/m N 0,0 km/h (0 Bft)
13.03.2005 19:00 -0,4 C 55 % 1014 hPa 0,0 l/m N 0,0 km/h (0 Bft)
13.03.2005 20:00 -1,9 C 60 % 1015 hPa 0,0 l/m N 0,0 km/h (0 Bft)
13.03.2005 21:00 -2,9 C 65 % 1015 hPa 0,0 l/m N 0,0 km/h (0 Bft)
13.03.2005 22:00 -3,6 C 69 % 1015 hPa 0,0 l/m N 0,0 km/h (0 Bft)
13.03.2005 23:00 -4,2 C 72 % 1015 hPa 0,0 l/m N 0,0 km/h (0 Bft)
Min-Datum _ 07.03.05 13.03.05 12.03.05 - - 07.03.05
_ Min-Zeit 02:48 16:50 13:28 - - 00:00
Minimum _ -13,6 C 40 % 1003 hPa - - 0,0 km/h (0 Bft)
Max-Datum _ 10.03.05 10.03.05 10.03.05 13.03.05 - 12.03.05
_ Max-Zeit 14:00 08:27 06:44 11:00 - 09:09
Maximum _ 5,6 C 100 % 1027 hPa 2,0 l/m - 54,4 km/h
S (7 Bft)
Durchschnitt _ -0,4 C 77 % 1019 hPa #4,0 l/m SW 13,0 km/h (3 Bft)

Durchschnitt Minimum Temp.-0,7 C
Durchschnitt Maximum Temp.-0,0 C